Location: Chervonnoye
(48.6000°N, 34.4000°E)
Time: 05:24:04
(UTC+00:00)

Cosmos 2208 Rocket - Pass Details

Date: 23 November 2020
Orbit: 754 x 806 km, 74.0° (Epoch: 18 January)

Event Time Altitude Azimuth Distance (km) Brightness Sun altitude
Rises 14:20:37 0° 185° (S) 3,218 7.7 -4.6°
Reaches altitude 10° 14:23:01 10° 181° (S) 2,304 6.9 -5.0°
Maximum altitude 14:28:05 52° 106° (ESE) 968 4.3 -5.8°
Drops below altitude 10° 14:33:14 10° 31° (NNE) 2,354 6.0 -6.5°
Enters shadow 14:35:35 - 27° (NNE) 3,251 6.8 -6.9°
